Time,TemperatureF,DewpointF,PressureIn,WindDirection,WindDirectionDegrees,WindSpeedMPH,WindSpeedGustMPH,Humidity,HourlyPrecipIn,Conditions,Clouds,dailyrainin,SoftwareType,DateUTC
2013-02-28 00:00:00,31.8,31.3,29.65,WSW,253,8.0,9.0,98,0.00,,,0.18,WUHU216DAVISVP2,2013-02-28 05:00:00,
2013-02-28 00:05:00,31.8,31.3,29.65,WSW,255,7.0,10.0,98,0.00,,,0.00,WUHU216DAVISVP2,2013-02-28 05:05:00,
2013-02-28 00:10:00,31.9,31.4,29.65,WSW,246,8.0,10.0,98,0.00,,,0.00,WUHU216DAVISVP2,2013-02-28 05:10:00,
2013-02-28 00:15:00,31.9,31.4,29.65,WSW,243,8.0,10.0,98,0.00,,,0.00,WUHU216DAVISVP2,2013-02-28 05:15:00,
2013-02-28 00:20:00,31.9,31.4,29.65,WSW,250,10.0,11.0,98,0.00,,,0.00,WUHU216DAVISVP2,2013-02-28 05:20:00,
2013-02-28 00:25:00,32.0,31.5,29.65,WSW,248,11.0,12.0,98,0.00,,,0.00,WUHU216DAVISVP2,2013-02-28 05:25:00,
2013-02-28 00:30:00,32.0,31.5,29.65,WSW,257,9.0,12.0,98,0.00,,,0.00,WUHU216DAVISVP2,2013-02-28 05:30:00,
2013-02-28 00:35:00,32.0,31.5,29.65,WSW,256,9.0,12.0,98,0.00,,,0.00,WUHU216DAVISVP2,2013-02-28 05:35:00,
2013-02-28 00:40:00,32.1,31.6,29.65,WSW,255,8.0,11.0,98,0.00,,,0.00,WUHU216DAVISVP2,2013-02-28 05:40:00,
2013-02-28 00:45:00,32.1,31.6,29.65,WSW,250,8.0,11.0,98,0.00,,,0.00,WUHU216DAVISVP2,2013-02-28 05:45:00,
2013-02-28 00:50:00,32.2,31.7,29.65,WSW,253,8.0,11.0,98,0.00,,,0.00,WUHU216DAVISVP2,2013-02-28 05:50:00,
2013-02-28 00:55:00,32.3,31.8,29.65,WSW,253,8.0,12.0,98,0.00,,,0.00,WUHU216DAVISVP2,2013-02-28 05:55:00,
2013-02-28 01:00:00,32.4,31.9,29.66,West,262,9.0,12.0,98,0.00,,,0.00,WUHU216DAVISVP2,2013-02-28 06:00:00,
2013-02-28 01:05:00,32.4,31.9,29.65,West,268,11.0,11.0,98,0.00,,,0.00,WUHU216DAVISVP2,2013-02-28 06:05:00,
2013-02-28 01:10:00,32.5,32.0,29.66,West,259,10.0,11.0,98,0.00,,,0.00,WUHU216DAVISVP2,2013-02-28 06:10:00,
2013-02-28 01:15:00,32.5,32.0,29.66,WSW,257,12.0,12.0,98,0.00,,,0.00,WUHU216DAVISVP2,2013-02-28 06:15:00,
2013-02-28 01:20:00,32.6,32.1,29.66,West,262,8.0,12.0,98,0.00,,,0.00,WUHU216DAVISVP2,2013-02-28 06:20:00,
2013-02-28 01:25:00,32.6,32.1,29.66,West,280,5.0,12.0,98,0.00,,,0.00,WUHU216DAVISVP2,2013-02-28 06:25:00,
2013-02-28 01:30:00,32.6,32.1,29.66,West,260,5.0,12.0,98,0.00,,,0.00,WUHU216DAVISVP2,2013-02-28 06:30:00,
2013-02-28 01:35:00,32.7,32.2,29.66,West,264,7.0,11.0,98,0.00,,,0.00,WUHU216DAVISVP2,2013-02-28 06:35:00,
2013-02-28 01:40:00,32.7,32.2,29.66,West,262,6.0,10.0,98,0.00,,,0.00,WUHU216DAVISVP2,2013-02-28 06:40:00,
2013-02-28 01:45:00,32.7,32.2,29.67,West,269,5.0,10.0,98,0.00,,,0.00,WUHU216DAVISVP2,2013-02-28 06:45:00,
2013-02-28 01:50:00,32.8,32.3,29.67,West,269,3.0,10.0,98,0.00,,,0.00,WUHU216DAVISVP2,2013-02-28 06:50:00,
2013-02-28 01:55:00,32.8,32.3,29.67,West,278,2.0,9.0,98,0.00,,,0.00,WUHU216DAVISVP2,2013-02-28 06:55:00,
2013-02-28 02:00:00,32.8,32.3,29.67,WNW,302,4.0,9.0,98,0.00,,,0.00,WUHU216DAVISVP2,2013-02-28 07:00:00,
2013-02-28 02:05:00,32.9,32.4,29.67,West,264,5.0,9.0,98,0.00,,,0.00,WUHU216DAVISVP2,2013-02-28 07:05:00,
2013-02-28 02:10:00,32.9,32.4,29.67,West,278,5.0,10.0,98,0.00,,,0.00,WUHU216DAVISVP2,2013-02-28 07:10:00,
2013-02-28 02:15:00,32.9,32.4,29.67,WNW,285,1.0,10.0,98,0.00,,,0.00,WUHU216DAVISVP2,2013-02-28 07:15:00,
2013-02-28 02:20:00,33.0,32.5,29.67,West,271,5.0,10.0,98,0.00,,,0.00,WUHU216DAVISVP2,2013-02-28 07:20:00,
2013-02-28 02:25:00,33.0,32.5,29.67,West,276,3.0,10.0,98,0.00,,,0.00,WUHU216DAVISVP2,2013-02-28 07:25:00,
2013-02-28 02:30:00,33.0,32.5,29.67,West,271,1.0,8.0,98,0.00,,,0.00,WUHU216DAVISVP2,2013-02-28 07:30:00,
2013-02-28 02:35:00,33.0,32.5,29.67,West,271,3.0,7.0,98,0.00,,,0.00,WUHU216DAVISVP2,2013-02-28 07:35:00,
2013-02-28 02:40:00,33.0,32.5,29.67,West,274,5.0,7.0,98,0.00,,,0.00,WUHU216DAVISVP2,2013-02-28 07:40:00,
2013-02-28 02:45:00,33.0,32.5,29.67,West,260,1.0,9.0,98,0.00,,,0.00,WUHU216DAVISVP2,2013-02-28 07:45:00,
2013-02-28 02:50:00,33.1,32.6,29.67,West,270,1.0,9.0,98,0.00,,,0.00,WUHU216DAVISVP2,2013-02-28 07:50:00,
2013-02-28 02:55:00,33.0,32.5,29.67,West,278,0.0,8.0,98,0.00,,,0.00,WUHU216DAVISVP2,2013-02-28 07:55:00,
2013-02-28 03:00:00,33.1,32.6,29.67,West,280,0.0,8.0,98,0.00,,,0.00,WUHU216DAVISVP2,2013-02-28 08:00:00,
2013-02-28 03:05:00,33.1,32.6,29.67,West,270,1.0,6.0,98,0.00,,,0.00,WUHU216DAVISVP2,2013-02-28 08:05:00,
2013-02-28 03:10:00,33.1,32.6,29.67,West,274,0.0,4.0,98,0.00,,,0.00,WUHU216DAVISVP2,2013-02-28 08:10:00,
2013-02-28 03:15:00,33.1,32.6,29.67,West,281,2.0,5.0,98,0.00,,,0.00,WUHU216DAVISVP2,2013-02-28 08:15:00,
2013-02-28 03:20:00,33.1,32.6,29.67,West,262,0.0,5.0,98,0.00,,,0.00,WUHU216DAVISVP2,2013-02-28 08:20:00,
2013-02-28 03:25:00,33.1,32.6,29.67,West,281,1.0,5.0,98,0.00,,,0.00,WUHU216DAVISVP2,2013-02-28 08:25:00,
2013-02-28 03:30:00,33.1,32.6,29.67,WNW,287,1.0,5.0,98,0.00,,,0.00,WUHU216DAVISVP2,2013-02-28 08:30:00,
2013-02-28 03:35:00,33.1,32.6,29.67,West,280,0.0,5.0,98,0.00,,,0.00,WUHU216DAVISVP2,2013-02-28 08:35:00,
2013-02-28 03:40:00,33.1,32.6,29.68,WNW,283,0.0,5.0,98,0.00,,,0.00,WUHU216DAVISVP2,2013-02-28 08:40:00,
2013-02-28 03:45:00,33.2,32.7,29.68,WNW,284,0.0,5.0,98,0.00,,,0.00,WUHU216DAVISVP2,2013-02-28 08:45:00,
2013-02-28 03:50:00,33.2,32.7,29.68,West,277,1.0,5.0,98,0.00,,,0.00,WUHU216DAVISVP2,2013-02-28 08:50:00,
2013-02-28 03:55:00,33.2,32.7,29.68,WNW,290,2.0,5.0,98,0.00,,,0.00,WUHU216DAVISVP2,2013-02-28 08:55:00,
2013-02-28 04:00:00,33.3,33.0,29.68,WNW,293,0.0,5.0,99,0.00,,,0.00,WUHU216DAVISVP2,2013-02-28 09:00:00,
2013-02-28 04:05:00,33.3,32.8,29.68,West,277,0.0,6.0,98,0.00,,,0.00,WUHU216DAVISVP2,2013-02-28 09:05:00,
2013-02-28 04:10:00,33.3,33.0,29.68,WNW,290,0.0,9.0,99,0.00,,,0.00,WUHU216DAVISVP2,2013-02-28 09:10:00,
2013-02-28 04:15:00,33.3,33.0,29.68,WNW,290,7.0,9.0,99,0.00,,,0.00,WUHU216DAVISVP2,2013-02-28 09:15:00,
2013-02-28 04:20:00,33.3,33.0,29.68,NW,308,6.0,10.0,99,0.00,,,0.00,WUHU216DAVISVP2,2013-02-28 09:20:00,
2013-02-28 04:25:00,33.3,33.0,29.69,West,280,2.0,10.0,99,0.00,,,0.00,WUHU216DAVISVP2,2013-02-28 09:25:00,
2013-02-28 04:30:00,33.3,33.0,29.69,West,267,3.0,10.0,99,0.00,,,0.00,WUHU216DAVISVP2,2013-02-28 09:30:00,
2013-02-28 04:35:00,33.2,32.9,29.69,WNW,290,2.0,10.0,99,0.00,,,0.00,WUHU216DAVISVP2,2013-02-28 09:35:00,
2013-02-28 04:40:00,33.2,32.9,29.69,WNW,293,1.0,10.0,99,0.00,,,0.00,WUHU216DAVISVP2,2013-02-28 09:40:00,
2013-02-28 04:45:00,33.2,32.9,29.70,WNW,295,1.0,10.0,99,0.00,,,0.00,WUHU216DAVISVP2,2013-02-28 09:45:00,
2013-02-28 04:50:00,33.2,32.9,29.70,WNW,292,7.0,12.0,99,0.00,,,0.00,WUHU216DAVISVP2,2013-02-28 09:50:00,
2013-02-28 04:55:00,33.2,32.9,29.70,West,278,2.0,12.0,99,0.00,,,0.00,WUHU216DAVISVP2,2013-02-28 09:55:00,
2013-02-28 05:00:00,33.2,32.9,29.70,WNW,295,1.0,12.0,99,0.00,,,0.00,WUHU216DAVISVP2,2013-02-28 10:00:00,
2013-02-28 05:05:00,33.2,32.9,29.70,WNW,290,4.0,12.0,99,0.00,,,0.00,WUHU216DAVISVP2,2013-02-28 10:05:00,
2013-02-28 05:10:00,33.2,32.9,29.71,WNW,294,4.0,12.0,99,0.00,,,0.00,WUHU216DAVISVP2,2013-02-28 10:10:00,
2013-02-28 05:15:00,33.2,32.9,29.71,NW,304,0.0,10.0,99,0.00,,,0.00,WUHU216DAVISVP2,2013-02-28 10:15:00,
2013-02-28 05:20:00,33.1,32.8,29.71,NW,304,5.0,10.0,99,0.00,,,0.00,WUHU216DAVISVP2,2013-02-28 10:20:00,
2013-02-28 05:25:00,33.1,32.8,29.71,WNW,300,3.0,11.0,99,0.00,,,0.00,WUHU216DAVISVP2,2013-02-28 10:25:00,
2013-02-28 05:30:00,33.1,32.8,29.71,WNW,300,6.0,11.0,99,0.00,,,0.00,WUHU216DAVISVP2,2013-02-28 10:30:00,
2013-02-28 05:35:00,33.1,32.8,29.71,WNW,290,5.0,11.0,99,0.00,,,0.00,WUHU216DAVISVP2,2013-02-28 10:35:00,
2013-02-28 05:40:00,33.0,32.7,29.71,WNW,302,7.0,11.0,99,0.00,,,0.00,WUHU216DAVISVP2,2013-02-28 10:40:00,
2013-02-28 05:45:00,33.0,32.7,29.72,NW,309,8.0,11.0,99,0.00,,,0.00,WUHU216DAVISVP2,2013-02-28 10:45:00,
2013-02-28 05:50:00,33.0,32.7,29.72,WNW,302,4.0,11.0,99,0.00,,,0.00,WUHU216DAVISVP2,2013-02-28 10:50:00,
2013-02-28 05:55:00,33.0,32.7,29.72,NW,305,9.0,11.0,99,0.00,,,0.00,WUHU216DAVISVP2,2013-02-28 10:55:00,
2013-02-28 06:00:00,33.0,32.7,29.72,WNW,302,3.0,11.0,99,0.00,,,0.00,WUHU216DAVISVP2,2013-02-28 11:00:00,
2013-02-28 06:05:00,32.9,32.6,29.72,WNW,302,4.0,10.0,99,0.00,,,0.00,WUHU216DAVISVP2,2013-02-28 11:05:00,
2013-02-28 06:10:00,32.9,32.6,29.72,NW,314,1.0,10.0,99,0.00,,,0.00,WUHU216DAVISVP2,2013-02-28 11:10:00,
2013-02-28 06:15:00,33.0,32.7,29.73,WNW,293,6.0,10.0,99,0.00,,,0.00,WUHU216DAVISVP2,2013-02-28 11:15:00,
2013-02-28 06:20:00,32.9,32.6,29.73,West,278,1.0,10.0,99,0.00,,,0.00,WUHU216DAVISVP2,2013-02-28 11:20:00,
2013-02-28 06:25:00,32.9,32.6,29.73,NW,311,3.0,9.0,99,0.00,,,0.00,WUHU216DAVISVP2,2013-02-28 11:25:00,
2013-02-28 06:30:00,32.9,32.6,29.73,NW,309,6.0,9.0,99,0.00,,,0.00,WUHU216DAVISVP2,2013-02-28 11:30:00,
2013-02-28 06:35:00,32.9,32.6,29.73,West,280,3.0,9.0,99,0.00,,,0.00,WUHU216DAVISVP2,2013-02-28 11:35:00,
2013-02-28 06:40:00,32.9,32.6,29.74,WNW,297,1.0,9.0,99,0.00,,,0.00,WUHU216DAVISVP2,2013-02-28 11:40:00,
2013-02-28 06:45:00,32.9,32.6,29.74,WNW,288,6.0,10.0,99,0.00,,,0.00,WUHU216DAVISVP2,2013-02-28 11:45:00,
2013-02-28 06:50:00,32.9,32.6,29.74,WNW,283,4.0,11.0,99,0.00,,,0.00,WUHU216DAVISVP2,2013-02-28 11:50:00,
2013-02-28 06:55:00,32.9,32.6,29.74,WNW,302,9.0,12.0,99,0.00,,,0.00,WUHU216DAVISVP2,2013-02-28 11:55:00,
2013-02-28 07:00:00,32.9,32.6,29.74,West,274,0.0,12.0,99,0.00,,,0.00,WUHU216DAVISVP2,2013-02-28 12:00:00,
2013-02-28 07:05:00,32.9,32.6,29.75,WNW,295,4.0,12.0,99,0.00,,,0.00,WUHU216DAVISVP2,2013-02-28 12:05:00,
2013-02-28 07:10:00,32.9,32.6,29.75,WNW,284,6.0,13.0,99,0.00,,,0.00,WUHU216DAVISVP2,2013-02-28 12:10:00,
2013-02-28 07:15:00,32.9,32.6,29.75,WNW,287,1.0,13.0,99,0.00,,,0.00,WUHU216DAVISVP2,2013-02-28 12:15:00,
2013-02-28 07:20:00,32.9,32.6,29.75,NW,314,4.0,13.0,99,0.00,,,0.00,WUHU216DAVISVP2,2013-02-28 12:20:00,
2013-02-28 07:25:00,32.9,32.6,29.75,WNW,283,3.0,13.0,99,0.00,,,0.00,WUHU216DAVISVP2,2013-02-28 12:25:00,
2013-02-28 07:30:00,32.9,32.6,29.75,NW,316,3.0,13.0,99,0.00,,,0.00,WUHU216DAVISVP2,2013-02-28 12:30:00,
2013-02-28 07:35:00,32.9,32.4,29.76,NW,310,6.0,13.0,98,0.00,,,0.00,WUHU216DAVISVP2,2013-02-28 12:35:00,
2013-02-28 07:40:00,32.9,32.6,29.76,NW,316,9.0,12.0,99,0.00,,,0.00,WUHU216DAVISVP2,2013-02-28 12:40:00,
2013-02-28 07:45:00,32.9,32.4,29.76,WNW,300,2.0,12.0,98,0.00,,,0.00,WUHU216DAVISVP2,2013-02-28 12:45:00,
2013-02-28 07:50:00,32.9,32.4,29.76,NW,307,5.0,12.0,98,0.00,,,0.00,WUHU216DAVISVP2,2013-02-28 12:50:00,
2013-02-28 07:55:00,32.9,32.4,29.76,NW,323,10.0,13.0,98,0.00,,,0.00,WUHU216DAVISVP2,2013-02-28 12:55:00,
2013-02-28 08:00:00,32.9,32.4,29.77,NW,314,9.0,13.0,98,0.00,,,0.00,WUHU216DAVISVP2,2013-02-28 13:00:00,
2013-02-28 08:05:00,33.0,32.5,29.77,NW,304,7.0,13.0,98,0.00,,,0.00,WUHU216DAVISVP2,2013-02-28 13:05:00,
2013-02-28 08:10:00,33.0,32.5,29.77,NW,304,9.0,14.0,98,0.00,,,0.00,WUHU216DAVISVP2,2013-02-28 13:10:00,
2013-02-28 08:15:00,33.0,32.5,29.77,NW,305,9.0,14.0,98,0.00,,,0.00,WUHU216DAVISVP2,2013-02-28 13:15:00,
2013-02-28 08:20:00,33.0,32.5,29.78,WNW,302,8.0,14.0,98,0.00,,,0.00,WUHU216DAVISVP2,2013-02-28 13:20:00,
2013-02-28 08:25:00,33.1,32.6,29.78,NW,305,7.0,14.0,98,0.00,,,0.00,WUHU216DAVISVP2,2013-02-28 13:25:00,
2013-02-28 08:30:00,33.1,32.6,29.78,NW,311,7.0,13.0,98,0.00,,,0.00,WUHU216DAVISVP2,2013-02-28 13:30:00,
2013-02-28 08:35:00,33.1,32.6,29.79,NW,312,7.0,13.0,98,0.00,,,0.00,WUHU216DAVISVP2,2013-02-28 13:35:00,
2013-02-28 08:40:00,33.2,32.7,29.79,NW,314,5.0,15.0,98,0.00,,,0.00,WUHU216DAVISVP2,2013-02-28 13:40:00,
2013-02-28 08:45:00,33.2,32.4,29.79,WNW,299,7.0,15.0,97,0.00,,,0.00,WUHU216DAVISVP2,2013-02-28 13:45:00,
2013-02-28 08:50:00,33.3,32.5,29.79,NW,316,8.0,15.0,97,0.00,,,0.00,WUHU216DAVISVP2,2013-02-28 13:50:00,
2013-02-28 08:55:00,33.3,32.5,29.79,NW,322,9.0,15.0,97,0.00,,,0.00,WUHU216DAVISVP2,2013-02-28 13:55:00,
2013-02-28 09:00:00,33.4,32.4,29.80,NW,307,8.0,11.0,96,0.00,,,0.00,WUHU216DAVISVP2,2013-02-28 14:00:00,
2013-02-28 09:05:00,33.4,32.4,29.80,NW,314,6.0,11.0,96,0.00,,,0.00,WUHU216DAVISVP2,2013-02-28 14:05:00,
2013-02-28 09:10:00,33.4,32.1,29.80,NW,316,6.0,12.0,95,0.00,,,0.00,WUHU216DAVISVP2,2013-02-28 14:10:00,
2013-02-28 09:15:00,33.5,32.2,29.80,NW,314,6.0,12.0,95,0.00,,,0.00,WUHU216DAVISVP2,2013-02-28 14:15:00,
2013-02-28 09:20:00,33.5,32.2,29.80,NW,304,6.0,12.0,95,0.00,,,0.00,WUHU216DAVISVP2,2013-02-28 14:20:00,
2013-02-28 09:25:00,33.5,32.2,29.80,NW,309,10.0,12.0,95,0.00,,,0.00,WUHU216DAVISVP2,2013-02-28 14:25:00,
2013-02-28 09:30:00,33.6,32.0,29.81,NW,309,9.0,12.0,94,0.00,,,0.00,WUHU216DAVISVP2,2013-02-28 14:30:00,
2013-02-28 09:35:00,33.6,32.0,29.81,WNW,302,7.0,12.0,94,0.00,,,0.00,WUHU216DAVISVP2,2013-02-28 14:35:00,
2013-02-28 09:40:00,33.7,32.1,29.81,NW,314,8.0,14.0,94,0.00,,,0.00,WUHU216DAVISVP2,2013-02-28 14:40:00,
2013-02-28 09:45:00,33.7,32.1,29.81,NW,305,6.0,14.0,94,0.00,,,0.00,WUHU216DAVISVP2,2013-02-28 14:45:00,
2013-02-28 09:50:00,33.7,31.8,29.82,NW,315,12.0,14.0,93,0.00,,,0.00,WUHU216DAVISVP2,2013-02-28 14:50:00,
2013-02-28 09:55:00,33.7,31.8,29.81,NW,321,9.0,15.0,93,0.00,,,0.00,WUHU216DAVISVP2,2013-02-28 14:55:00,
2013-02-28 10:00:00,33.8,31.9,29.82,NNW,328,9.0,15.0,93,0.00,,,0.00,WUHU216DAVISVP2,2013-02-28 15:00:00,
2013-02-28 10:05:00,33.8,31.9,29.82,NNW,331,8.0,15.0,93,0.00,,,0.00,WUHU216DAVISVP2,2013-02-28 15:05:00,
2013-02-28 10:10:00,33.9,31.8,29.82,NNW,333,7.0,15.0,92,0.00,,,0.00,WUHU216DAVISVP2,2013-02-28 15:10:00,
2013-02-28 10:15:00,33.9,31.8,29.82,NW,316,11.0,14.0,92,0.00,,,0.00,WUHU216DAVISVP2,2013-02-28 15:15:00,
2013-02-28 10:20:00,34.0,31.9,29.82,NW,316,8.0,14.0,92,0.00,,,0.00,WUHU216DAVISVP2,2013-02-28 15:20:00,
2013-02-28 10:25:00,34.0,31.9,29.83,NW,321,6.0,14.0,92,0.00,,,0.00,WUHU216DAVISVP2,2013-02-28 15:25:00,
2013-02-28 10:30:00,34.1,32.0,29.83,NW,324,7.0,12.0,92,0.00,,,0.00,WUHU216DAVISVP2,2013-02-28 15:30:00,
2013-02-28 10:35:00,34.1,32.0,29.83,NW,319,10.0,12.0,92,0.00,,,0.00,WUHU216DAVISVP2,2013-02-28 15:35:00,
2013-02-28 10:40:00,34.1,31.7,29.83,NW,321,11.0,15.0,91,0.00,,,0.00,WUHU216DAVISVP2,2013-02-28 15:40:00,
2013-02-28 10:45:00,34.1,31.7,29.83,NW,321,10.0,15.0,91,0.00,,,0.00,WUHU216DAVISVP2,2013-02-28 15:45:00,
2013-02-28 10:50:00,34.2,31.8,29.83,NW,318,8.0,15.0,91,0.00,,,0.00,WUHU216DAVISVP2,2013-02-28 15:50:00,
2013-02-28 10:55:00,34.2,31.8,29.83,NNW,328,6.0,15.0,91,0.00,,,0.00,WUHU216DAVISVP2,2013-02-28 15:55:00,
2013-02-28 11:00:00,34.3,31.9,29.83,NW,316,11.0,17.0,91,0.00,,,0.00,WUHU216DAVISVP2,2013-02-28 16:00:00,
2013-02-28 11:05:00,34.4,31.7,29.84,NW,319,9.0,17.0,90,0.00,,,0.00,WUHU216DAVISVP2,2013-02-28 16:05:00,
2013-02-28 11:10:00,34.4,31.7,29.84,NW,325,7.0,17.0,90,0.00,,,0.01,WUHU216DAVISVP2,2013-02-28 16:10:00,
2013-02-28 11:15:00,34.5,31.8,29.84,NW,311,6.0,17.0,90,0.01,,,0.01,WUHU216DAVISVP2,2013-02-28 16:15:00,
2013-02-28 11:20:00,34.5,31.8,29.85,NW,323,11.0,15.0,90,0.01,,,0.01,WUHU216DAVISVP2,2013-02-28 16:20:00,
2013-02-28 11:25:00,34.6,31.9,29.85,NW,318,6.0,15.0,90,0.01,,,0.01,WUHU216DAVISVP2,2013-02-28 16:25:00,
2013-02-28 11:30:00,34.5,31.8,29.85,NNW,328,8.0,15.0,90,0.01,,,0.01,WUHU216DAVISVP2,2013-02-28 16:30:00,
2013-02-28 11:35:00,34.6,32.2,29.85,WNW,300,10.0,15.0,91,0.01,,,0.01,WUHU216DAVISVP2,2013-02-28 16:35:00,
2013-02-28 11:40:00,34.7,32.3,29.85,WNW,300,9.0,14.0,91,0.02,,,0.02,WUHU216DAVISVP2,2013-02-28 16:40:00,
2013-02-28 11:45:00,34.7,32.0,29.85,WNW,294,10.0,14.0,90,0.02,,,0.02,WUHU216DAVISVP2,2013-02-28 16:45:00,
2013-02-28 11:50:00,34.8,32.2,29.85,NW,309,7.0,14.0,90,0.02,,,0.02,WUHU216DAVISVP2,2013-02-28 16:50:00,
2013-02-28 11:55:00,35.0,32.4,29.86,NW,314,7.0,14.0,90,0.02,,,0.02,WUHU216DAVISVP2,2013-02-28 16:55:00,
2013-02-28 12:00:00,35.1,32.4,29.86,NW,317,10.0,13.0,90,0.02,,,0.02,WUHU216DAVISVP2,2013-02-28 17:00:00,
2013-02-28 12:05:00,35.2,32.3,29.86,NW,315,7.0,13.0,89,0.03,,,0.03,WUHU216DAVISVP2,2013-02-28 17:05:00,
2013-02-28 12:10:00,35.2,32.3,29.86,NW,322,7.0,14.0,89,0.03,,,0.03,WUHU216DAVISVP2,2013-02-28 17:10:00,
2013-02-28 12:15:00,35.3,32.3,29.86,NW,323,8.0,14.0,89,0.02,,,0.03,WUHU216DAVISVP2,2013-02-28 17:15:00,
2013-02-28 12:20:00,35.3,32.1,29.86,WNW,302,10.0,14.0,88,0.02,,,0.03,WUHU216DAVISVP2,2013-02-28 17:20:00,
2013-02-28 12:25:00,35.2,32.0,29.87,NW,307,10.0,14.0,88,0.02,,,0.03,WUHU216DAVISVP2,2013-02-28 17:25:00,
2013-02-28 12:30:00,35.2,32.0,29.87,NW,314,9.0,14.0,88,0.03,,,0.04,WUHU216DAVISVP2,2013-02-28 17:30:00,
2013-02-28 12:35:00,35.3,32.4,29.87,NW,316,8.0,14.0,89,0.03,,,0.04,WUHU216DAVISVP2,2013-02-28 17:35:00,
2013-02-28 12:40:00,35.3,32.3,29.87,WNW,302,7.0,14.0,89,0.02,,,0.04,WUHU216DAVISVP2,2013-02-28 17:40:00,
2013-02-28 12:45:00,35.4,32.4,29.86,NW,314,9.0,13.0,89,0.02,,,0.04,WUHU216DAVISVP2,2013-02-28 17:45:00,
2013-02-28 12:50:00,35.3,32.3,29.87,NW,314,7.0,13.0,89,0.02,,,0.04,WUHU216DAVISVP2,2013-02-28 17:50:00,
2013-02-28 12:55:00,35.3,32.4,29.86,WNW,299,6.0,13.0,89,0.02,,,0.04,WUHU216DAVISVP2,2013-02-28 17:55:00,
2013-02-28 13:00:00,35.5,32.6,29.87,NW,305,2.0,13.0,89,0.02,,,0.04,WUHU216DAVISVP2,2013-02-28 18:00:00,
2013-02-28 13:05:00,35.7,32.7,29.87,NW,309,5.0,10.0,89,0.02,,,0.05,WUHU216DAVISVP2,2013-02-28 18:05:00,
2013-02-28 13:10:00,35.8,32.9,29.87,NW,304,7.0,10.0,89,0.02,,,0.05,WUHU216DAVISVP2,2013-02-28 18:10:00,
2013-02-28 13:15:00,35.9,32.7,29.87,WNW,302,6.0,10.0,88,0.02,,,0.05,WUHU216DAVISVP2,2013-02-28 18:15:00,
2013-02-28 13:20:00,36.1,32.9,29.87,NW,311,9.0,10.0,88,0.02,,,0.05,WUHU216DAVISVP2,2013-02-28 18:20:00,
2013-02-28 13:25:00,36.2,33.0,29.87,NW,308,7.0,11.0,88,0.02,,,0.05,WUHU216DAVISVP2,2013-02-28 18:25:00,
2013-02-28 13:30:00,36.3,32.8,29.87,NW,314,6.0,11.0,87,0.02,,,0.06,WUHU216DAVISVP2,2013-02-28 18:30:00,
2013-02-28 13:35:00,36.3,33.0,29.87,NW,307,9.0,11.0,88,0.02,,,0.06,WUHU216DAVISVP2,2013-02-28 18:35:00,
2013-02-28 13:40:00,36.3,32.8,29.87,NW,304,9.0,11.0,87,0.02,,,0.06,WUHU216DAVISVP2,2013-02-28 18:40:00,
2013-02-28 13:45:00,36.3,32.8,29.87,WNW,300,9.0,11.0,87,0.02,,,0.06,WUHU216DAVISVP2,2013-02-28 18:45:00,
2013-02-28 13:50:00,36.4,32.9,29.87,NW,307,7.0,11.0,87,0.02,,,0.06,WUHU216DAVISVP2,2013-02-28 18:50:00,
2013-02-28 13:55:00,36.3,32.8,29.87,NW,311,8.0,11.0,87,0.02,,,0.06,WUHU216DAVISVP2,2013-02-28 18:55:00,
2013-02-28 14:00:00,36.3,32.8,29.87,WNW,299,9.0,11.0,87,0.03,,,0.07,WUHU216DAVISVP2,2013-02-28 19:00:00,
2013-02-28 14:05:00,36.3,32.8,29.87,NW,308,6.0,11.0,87,0.02,,,0.07,WUHU216DAVISVP2,2013-02-28 19:05:00,
2013-02-28 14:10:00,36.3,32.5,29.87,NW,314,5.0,11.0,86,0.02,,,0.07,WUHU216DAVISVP2,2013-02-28 19:10:00,
2013-02-28 14:15:00,36.3,32.8,29.87,WNW,302,7.0,11.0,87,0.02,,,0.07,WUHU216DAVISVP2,2013-02-28 19:15:00,
2013-02-28 14:20:00,36.2,32.7,29.88,NW,314,6.0,11.0,87,0.02,,,0.07,WUHU216DAVISVP2,2013-02-28 19:20:00,
2013-02-28 14:25:00,36.3,32.8,29.88,NW,309,6.0,11.0,87,0.02,,,0.07,WUHU216DAVISVP2,2013-02-28 19:25:00,
2013-02-28 14:30:00,36.4,32.9,29.88,WNW,294,3.0,10.0,87,0.01,,,0.07,WUHU216DAVISVP2,2013-02-28 19:30:00,
2013-02-28 14:35:00,36.5,33.0,29.88,WNW,302,5.0,9.0,87,0.01,,,0.07,WUHU216DAVISVP2,2013-02-28 19:35:00,
2013-02-28 14:40:00,36.6,33.1,29.88,WNW,297,6.0,9.0,87,0.01,,,0.07,WUHU216DAVISVP2,2013-02-28 19:40:00,
2013-02-28 14:45:00,36.6,32.8,29.88,WNW,302,6.0,9.0,86,0.01,,,0.07,WUHU216DAVISVP2,2013-02-28 19:45:00,
2013-02-28 14:50:00,36.6,32.8,29.88,NW,316,4.0,9.0,86,0.01,,,0.07,WUHU216DAVISVP2,2013-02-28 19:50:00,
2013-02-28 14:55:00,36.6,32.8,29.88,NW,311,7.0,9.0,86,0.01,,,0.07,WUHU216DAVISVP2,2013-02-28 19:55:00,
2013-02-28 15:00:00,36.5,32.7,29.88,NW,311,7.0,10.0,86,0.00,,,0.07,WUHU216DAVISVP2,2013-02-28 20:00:00,
2013-02-28 15:05:00,36.5,33.0,29.89,WNW,294,4.0,10.0,87,0.00,,,0.07,WUHU216DAVISVP2,2013-02-28 20:05:00,
2013-02-28 15:10:00,36.6,33.1,29.89,NW,305,7.0,10.0,87,0.00,,,0.07,WUHU216DAVISVP2,2013-02-28 20:10:00,
2013-02-28 15:15:00,36.5,33.0,29.89,NW,311,4.0,11.0,87,0.00,,,0.07,WUHU216DAVISVP2,2013-02-28 20:15:00,
2013-02-28 15:20:00,36.5,33.0,29.89,NW,326,4.0,11.0,87,0.00,,,0.07,WUHU216DAVISVP2,2013-02-28 20:20:00,
2013-02-28 15:25:00,36.7,33.2,29.89,NW,309,5.0,11.0,87,0.00,,,0.07,WUHU216DAVISVP2,2013-02-28 20:25:00,
2013-02-28 15:30:00,36.6,33.1,29.89,NW,305,8.0,11.0,87,0.00,,,0.07,WUHU216DAVISVP2,2013-02-28 20:30:00,
2013-02-28 15:35:00,36.5,33.0,29.89,WNW,300,6.0,11.0,87,0.00,,,0.07,WUHU216DAVISVP2,2013-02-28 20:35:00,
2013-02-28 15:40:00,36.3,32.8,29.89,NW,311,6.0,11.0,87,0.00,,,0.07,WUHU216DAVISVP2,2013-02-28 20:40:00,
2013-02-28 15:45:00,36.2,33.0,29.90,WNW,282,6.0,14.0,88,0.00,,,0.07,WUHU216DAVISVP2,2013-02-28 20:45:00,
2013-02-28 15:50:00,36.1,32.9,29.90,NW,305,8.0,14.0,88,0.00,,,0.07,WUHU216DAVISVP2,2013-02-28 20:50:00,
2013-02-28 15:55:00,36.0,32.8,29.90,WNW,295,6.0,14.0,88,0.00,,,0.07,WUHU216DAVISVP2,2013-02-28 20:55:00,
2013-02-28 16:00:00,35.9,32.7,29.90,NW,309,4.0,14.0,88,0.00,,,0.07,WUHU216DAVISVP2,2013-02-28 21:00:00,
2013-02-28 16:05:00,35.9,32.7,29.91,NW,319,9.0,14.0,88,0.00,,,0.07,WUHU216DAVISVP2,2013-02-28 21:05:00,
2013-02-28 16:10:00,35.9,32.7,29.91,NW,315,8.0,13.0,88,0.00,,,0.07,WUHU216DAVISVP2,2013-02-28 21:10:00,
2013-02-28 16:15:00,35.9,32.7,29.91,WNW,297,7.0,14.0,88,0.00,,,0.07,WUHU216DAVISVP2,2013-02-28 21:15:00,
2013-02-28 16:20:00,35.9,32.7,29.91,WNW,297,3.0,14.0,88,0.00,,,0.07,WUHU216DAVISVP2,2013-02-28 21:20:00,
2013-02-28 16:25:00,36.0,32.8,29.91,NW,305,6.0,14.0,88,0.00,,,0.07,WUHU216DAVISVP2,2013-02-28 21:25:00,
2013-02-28 16:30:00,36.1,32.9,29.92,NW,310,8.0,14.0,88,0.00,,,0.07,WUHU216DAVISVP2,2013-02-28 21:30:00,
2013-02-28 16:35:00,36.0,32.8,29.92,WNW,302,11.0,14.0,88,0.00,,,0.07,WUHU216DAVISVP2,2013-02-28 21:35:00,
2013-02-28 16:40:00,35.9,32.7,29.92,NW,311,4.0,14.0,88,0.00,,,0.07,WUHU216DAVISVP2,2013-02-28 21:40:00,
2013-02-28 16:45:00,35.7,32.5,29.92,NW,310,11.0,14.0,88,0.00,,,0.07,WUHU216DAVISVP2,2013-02-28 21:45:00,
2013-02-28 16:50:00,35.7,32.5,29.93,WNW,302,7.0,14.0,88,0.00,,,0.07,WUHU216DAVISVP2,2013-02-28 21:50:00,
2013-02-28 16:55:00,35.7,32.7,29.93,WNW,297,9.0,14.0,89,0.00,,,0.07,WUHU216DAVISVP2,2013-02-28 21:55:00,
2013-02-28 17:00:00,35.6,32.6,29.93,West,276,2.0,14.0,89,0.00,,,0.07,WUHU216DAVISVP2,2013-02-28 22:00:00,
2013-02-28 17:05:00,35.7,32.5,29.93,WNW,302,7.0,11.0,88,0.00,,,0.07,WUHU216DAVISVP2,2013-02-28 22:05:00,
2013-02-28 17:10:00,35.7,32.5,29.93,NW,311,4.0,10.0,88,0.00,,,0.07,WUHU216DAVISVP2,2013-02-28 22:10:00,
2013-02-28 17:15:00,35.6,32.4,29.94,WNW,300,9.0,9.0,88,0.00,,,0.07,WUHU216DAVISVP2,2013-02-28 22:15:00,
2013-02-28 17:20:00,35.5,32.3,29.94,WNW,287,2.0,9.0,88,0.00,,,0.07,WUHU216DAVISVP2,2013-02-28 22:20:00,
2013-02-28 17:25:00,35.5,32.3,29.94,WNW,283,2.0,9.0,88,0.00,,,0.07,WUHU216DAVISVP2,2013-02-28 22:25:00,
2013-02-28 17:30:00,35.4,32.2,29.94,NW,308,5.0,9.0,88,0.00,,,0.07,WUHU216DAVISVP2,2013-02-28 22:30:00,
2013-02-28 17:35:00,35.3,32.1,29.94,WNW,290,4.0,12.0,88,0.00,,,0.07,WUHU216DAVISVP2,2013-02-28 22:35:00,
2013-02-28 17:40:00,35.1,31.9,29.95,NW,307,9.0,12.0,88,0.00,,,0.07,WUHU216DAVISVP2,2013-02-28 22:40:00,
2013-02-28 17:45:00,35.0,31.8,29.95,WNW,290,8.0,13.0,88,0.00,,,0.07,WUHU216DAVISVP2,2013-02-28 22:45:00,
2013-02-28 17:50:00,35.0,31.8,29.95,WNW,300,2.0,13.0,88,0.00,,,0.07,WUHU216DAVISVP2,2013-02-28 22:50:00,
2013-02-28 17:55:00,34.9,31.7,29.95,WNW,300,5.0,13.0,88,0.00,,,0.07,WUHU216DAVISVP2,2013-02-28 22:55:00,
2013-02-28 18:00:00,34.8,31.6,29.96,West,267,2.0,13.0,88,0.00,,,0.07,WUHU216DAVISVP2,2013-02-28 23:00:00,
2013-02-28 18:05:00,34.7,31.5,29.96,WNW,290,3.0,9.0,88,0.00,,,0.07,WUHU216DAVISVP2,2013-02-28 23:05:00,
2013-02-28 18:10:00,34.7,31.5,29.96,West,264,1.0,9.0,88,0.00,,,0.07,WUHU216DAVISVP2,2013-02-28 23:10:00,
2013-02-28 18:15:00,34.7,31.5,29.97,NW,322,5.0,9.0,88,0.00,,,0.07,WUHU216DAVISVP2,2013-02-28 23:15:00,
2013-02-28 18:20:00,34.6,31.4,29.97,NW,311,4.0,8.0,88,0.00,,,0.07,WUHU216DAVISVP2,2013-02-28 23:20:00,
2013-02-28 18:25:00,34.6,31.4,29.97,WNW,297,5.0,10.0,88,0.00,,,0.07,WUHU216DAVISVP2,2013-02-28 23:25:00,
2013-02-28 18:30:00,34.5,31.3,29.97,NW,308,6.0,11.0,88,0.00,,,0.07,WUHU216DAVISVP2,2013-02-28 23:30:00,
2013-02-28 18:35:00,34.5,31.3,29.97,WNW,294,2.0,11.0,88,0.00,,,0.07,WUHU216DAVISVP2,2013-02-28 23:35:00,
2013-02-28 18:40:00,34.4,31.2,29.97,WNW,288,7.0,11.0,88,0.00,,,0.07,WUHU216DAVISVP2,2013-02-28 23:40:00,
2013-02-28 18:45:00,34.3,31.1,29.98,WNW,300,9.0,12.0,88,0.00,,,0.07,WUHU216DAVISVP2,2013-02-28 23:45:00,
2013-02-28 18:50:00,34.3,31.1,29.98,WNW,300,10.0,12.0,88,0.00,,,0.07,WUHU216DAVISVP2,2013-02-28 23:50:00,
2013-02-28 18:55:00,34.2,31.0,29.98,NW,304,11.0,13.0,88,0.00,,,0.07,WUHU216DAVISVP2,2013-02-28 23:55:00,
2013-02-28 19:00:00,34.1,30.9,29.99,WNW,300,8.0,13.0,88,0.00,,,0.07,WUHU216DAVISVP2,2013-03-01 00:00:00,
2013-02-28 19:05:00,34.0,30.8,29.99,NW,314,5.0,13.0,88,0.00,,,0.07,WUHU216DAVISVP2,2013-03-01 00:05:00,
2013-02-28 19:10:00,34.0,30.8,29.99,NW,309,11.0,13.0,88,0.00,,,0.07,WUHU216DAVISVP2,2013-03-01 00:10:00,
2013-02-28 19:15:00,33.9,30.7,29.99,WNW,302,8.0,16.0,88,0.00,,,0.07,WUHU216DAVISVP2,2013-03-01 00:15:00,
2013-02-28 19:20:00,33.8,30.6,29.99,WNW,302,11.0,18.0,88,0.00,,,0.07,WUHU216DAVISVP2,2013-03-01 00:20:00,
2013-02-28 19:25:00,33.8,30.6,30.00,WNW,293,9.0,18.0,88,0.00,,,0.07,WUHU216DAVISVP2,2013-03-01 00:25:00,
2013-02-28 19:30:00,33.7,30.5,30.00,NW,309,9.0,18.0,88,0.00,,,0.07,WUHU216DAVISVP2,2013-03-01 00:30:00,
2013-02-28 19:35:00,33.6,30.7,30.00,West,276,5.0,18.0,89,0.00,,,0.07,WUHU216DAVISVP2,2013-03-01 00:35:00,
2013-02-28 19:40:00,33.6,30.7,30.00,WNW,287,6.0,16.0,89,0.00,,,0.07,WUHU216DAVISVP2,2013-03-01 00:40:00,
2013-02-28 19:45:00,33.4,30.5,30.01,NW,322,4.0,14.0,89,0.00,,,0.07,WUHU216DAVISVP2,2013-03-01 00:45:00,
2013-02-28 19:50:00,33.3,30.6,30.01,NW,323,8.0,13.0,90,0.00,,,0.07,WUHU216DAVISVP2,2013-03-01 00:50:00,
2013-02-28 19:55:00,33.3,30.6,30.01,West,262,2.0,13.0,90,0.00,,,0.07,WUHU216DAVISVP2,2013-03-01 00:55:00,
2013-02-28 20:00:00,33.1,30.4,30.01,NW,305,13.0,15.0,90,0.00,,,0.07,WUHU216DAVISVP2,2013-03-01 01:00:00,
2013-02-28 20:05:00,33.0,30.3,30.01,WNW,292,9.0,17.0,90,0.00,,,0.07,WUHU216DAVISVP2,2013-03-01 01:05:00,
2013-02-28 20:10:00,32.9,30.3,30.00,WNW,302,12.0,17.0,90,0.00,,,0.07,WUHU216DAVISVP2,2013-03-01 01:10:00,
2013-02-28 20:15:00,32.9,30.0,30.01,NW,316,9.0,18.0,89,0.00,,,0.07,WUHU216DAVISVP2,2013-03-01 01:15:00,
2013-02-28 20:20:00,32.9,30.0,30.01,NW,304,12.0,18.0,89,0.00,,,0.07,WUHU216DAVISVP2,2013-03-01 01:20:00,
2013-02-28 20:25:00,32.9,30.0,30.01,NW,304,8.0,18.0,89,0.00,,,0.07,WUHU216DAVISVP2,2013-03-01 01:25:00,
2013-02-28 20:30:00,32.9,30.0,30.01,NW,319,8.0,18.0,89,0.00,,,0.07,WUHU216DAVISVP2,2013-03-01 01:30:00,
2013-02-28 20:35:00,32.8,29.9,30.01,NW,304,9.0,18.0,89,0.00,,,0.07,WUHU216DAVISVP2,2013-03-01 01:35:00,
2013-02-28 20:40:00,32.8,29.9,30.01,NW,305,12.0,17.0,89,0.00,,,0.07,WUHU216DAVISVP2,2013-03-01 01:40:00,
2013-02-28 20:45:00,32.7,29.8,30.01,NW,305,9.0,13.0,89,0.00,,,0.07,WUHU216DAVISVP2,2013-03-01 01:45:00,
2013-02-28 20:50:00,32.7,29.8,30.01,NW,312,9.0,13.0,89,0.00,,,0.07,WUHU216DAVISVP2,2013-03-01 01:50:00,
2013-02-28 20:55:00,32.7,29.8,30.01,NW,314,7.0,13.0,89,0.00,,,0.07,WUHU216DAVISVP2,2013-03-01 01:55:00,
2013-02-28 21:00:00,32.7,29.8,30.01,NW,319,11.0,15.0,89,0.00,,,0.07,WUHU216DAVISVP2,2013-03-01 02:00:00,
2013-02-28 21:05:00,32.7,29.8,30.01,NW,315,12.0,17.0,89,0.00,,,0.07,WUHU216DAVISVP2,2013-03-01 02:05:00,
2013-02-28 21:10:00,32.6,29.7,30.01,NW,325,12.0,17.0,89,0.00,,,0.07,WUHU216DAVISVP2,2013-03-01 02:10:00,
2013-02-28 21:15:00,32.6,29.7,30.01,NW,316,11.0,18.0,89,0.00,,,0.07,WUHU216DAVISVP2,2013-03-01 02:15:00,
2013-02-28 21:20:00,32.6,29.7,30.01,NW,310,12.0,18.0,89,0.00,,,0.07,WUHU216DAVISVP2,2013-03-01 02:20:00,
2013-02-28 21:25:00,32.6,29.7,30.01,NW,316,10.0,18.0,89,0.00,,,0.07,WUHU216DAVISVP2,2013-03-01 02:25:00,
2013-02-28 21:30:00,32.5,29.6,30.01,NW,308,6.0,18.0,89,0.00,,,0.07,WUHU216DAVISVP2,2013-03-01 02:30:00,
2013-02-28 21:35:00,32.5,29.6,30.01,NNW,328,11.0,18.0,89,0.00,,,0.07,WUHU216DAVISVP2,2013-03-01 02:35:00,
2013-02-28 21:40:00,32.5,29.6,30.01,NW,314,7.0,15.0,89,0.00,,,0.07,WUHU216DAVISVP2,2013-03-01 02:40:00,
2013-02-28 21:45:00,32.5,29.6,30.01,NW,321,3.0,15.0,89,0.00,,,0.07,WUHU216DAVISVP2,2013-03-01 02:45:00,
2013-02-28 21:50:00,32.4,29.5,30.01,NW,305,6.0,13.0,89,0.00,,,0.07,WUHU216DAVISVP2,2013-03-01 02:50:00,
2013-02-28 21:55:00,32.4,29.5,30.01,NW,319,6.0,13.0,89,0.00,,,0.07,WUHU216DAVISVP2,2013-03-01 02:55:00,
2013-02-28 22:00:00,32.4,29.5,30.01,NNW,327,4.0,12.0,89,0.00,,,0.07,WUHU216DAVISVP2,2013-03-01 03:00:00,
2013-02-28 22:05:00,32.4,29.5,30.01,NW,311,8.0,12.0,89,0.00,,,0.07,WUHU216DAVISVP2,2013-03-01 03:05:00,
2013-02-28 22:10:00,32.4,29.5,30.01,NW,316,7.0,13.0,89,0.00,,,0.07,WUHU216DAVISVP2,2013-03-01 03:10:00,
2013-02-28 22:15:00,32.3,29.4,30.01,NW,313,8.0,16.0,89,0.00,,,0.07,WUHU216DAVISVP2,2013-03-01 03:15:00,
2013-02-28 22:20:00,32.3,29.4,30.01,NNW,329,4.0,16.0,89,0.00,,,0.07,WUHU216DAVISVP2,2013-03-01 03:20:00,
2013-02-28 22:25:00,32.3,29.4,30.01,NW,309,9.0,16.0,89,0.00,,,0.07,WUHU216DAVISVP2,2013-03-01 03:25:00,
2013-02-28 22:30:00,32.3,29.4,30.01,NW,309,5.0,16.0,89,0.00,,,0.07,WUHU216DAVISVP2,2013-03-01 03:30:00,
2013-02-28 22:35:00,32.2,29.0,30.01,NNW,327,12.0,16.0,88,0.00,,,0.07,WUHU216DAVISVP2,2013-03-01 03:35:00,
2013-02-28 22:40:00,32.3,29.1,30.01,NW,316,12.0,17.0,88,0.00,,,0.07,WUHU216DAVISVP2,2013-03-01 03:40:00,
2013-02-28 22:45:00,32.2,29.0,30.01,NNW,328,11.0,17.0,88,0.00,,,0.07,WUHU216DAVISVP2,2013-03-01 03:45:00,
2013-02-28 22:50:00,32.2,29.0,30.01,NW,314,9.0,17.0,88,0.00,,,0.07,WUHU216DAVISVP2,2013-03-01 03:50:00,
2013-02-28 22:55:00,32.1,29.2,30.01,NW,324,6.0,17.0,89,0.00,,,0.07,WUHU216DAVISVP2,2013-03-01 03:55:00,
2013-02-28 23:00:00,32.1,28.9,30.01,NW,309,8.0,15.0,88,0.00,,,0.07,WUHU216DAVISVP2,2013-03-01 04:00:00,
2013-02-28 23:05:00,32.0,28.8,30.01,North,349,9.0,15.0,88,0.00,,,0.07,WUHU216DAVISVP2,2013-03-01 04:05:00,
2013-02-28 23:11:00,32.0,29.1,30.01,NW,314,12.0,15.0,89,0.00,,,0.07,WUHU216DAVISVP2,2013-03-01 04:11:00,
2013-02-28 23:16:00,32.0,29.1,30.01,NW,314,7.0,15.0,89,0.00,,,0.07,WUHU216DAVISVP2,2013-03-01 04:16:00,
2013-02-28 23:21:00,32.0,29.1,30.01,WNW,294,8.0,15.0,89,0.00,,,0.07,WUHU216DAVISVP2,2013-03-01 04:21:00,
2013-02-28 23:26:00,31.9,29.0,30.01,NW,316,7.0,13.0,89,0.00,,,0.07,WUHU216DAVISVP2,2013-03-01 04:26:00,
2013-02-28 23:31:00,31.9,29.0,30.01,NW,317,8.0,13.0,89,0.00,,,0.07,WUHU216DAVISVP2,2013-03-01 04:31:00,
2013-02-28 23:36:00,31.9,29.0,30.01,NNW,331,8.0,12.0,89,0.00,,,0.07,WUHU216DAVISVP2,2013-03-01 04:36:00,
2013-02-28 23:41:00,31.9,29.0,30.01,NW,318,6.0,12.0,89,0.00,,,0.07,WUHU216DAVISVP2,2013-03-01 04:41:00,
2013-02-28 23:46:00,31.9,29.0,30.01,NW,321,6.0,12.0,89,0.00,,,0.07,WUHU216DAVISVP2,2013-03-01 04:46:00,
2013-02-28 23:51:00,31.8,28.9,30.01,NW,324,6.0,10.0,89,0.00,,,0.07,WUHU216DAVISVP2,2013-03-01 04:51:00,
2013-02-28 23:56:00,31.8,29.2,30.01,NW,323,5.0,10.0,90,0.00,,,0.07,WUHU216DAVISVP2,2013-03-01 04:56:00,